Location: ?????????
(44.2517°N, 135.2292°E)
Time: 17:05:21
(UTC+00:00)

Cosmos 2366 rocket - Pass Details

Date: 19 May 2025
Orbit: 954 x 996 km, 82.9° (Epoch: 20 June)

Event Time Altitude Azimuth Distance (km) Brightness Sun altitude
Rises 12:25:24 0° 352° (N) 3,726 8.1 -17.3°
Reaches altitude 10° 12:27:57 10° 354° (N) 2,772 7.3 -17.5°
Maximum altitude 12:34:20 78° 81° (E) 1,019 4.0 -18.2°
Enters shadow 12:37:50 29° 164° (SSE) 1,742 4.8 -18.5°
